Effective Sunday, March 17, 2024, the National Weather Service National Data Buoy Center will discontinue its Dial-A-Buoy Interactive Voice Response system. For more information, see Service Change Notice 24-06 (PDF).

Station 46086 (LLNR 81) - SAN CLEMENTE BASIN - 27NM SE Of San Clemente Is, CA Image indicating link to RSS feed of recent meteorological observations for station 46086


Conditions at 46086 as of
(10:30 am PST)
1830 GMT on 03/03/2024:
     

Click on the graph icon in the table below to see a time series plot of the last five days of that observation.

5-day plot - Wind Direction Wind Direction (WDIR): W ( 270 deg true )
5-day plot - Wind Speed Wind Speed (WSPD): 13.6 kts
5-day plot - Wind Gust Wind Gust (GST): 19.4 kts
5-day plot - Atmospheric Pressure Atmospheric Pressure (PRES):30.09 in
5-day plot - Air Temperature Air Temperature (ATMP): 59.7 °F
5-day plot - Water Temperature Water Temperature (WTMP): 60.6 °F
5-day plot - Dew Point Dew Point (DEWP): 51.8 °F
5-day plot - Wind Speed at 10 Meters Wind Speed at 10 meters (WSPD10M): 15.5 kts
5-day plot - Wind Speed at 20 Meters Wind Speed at 20 meters (WSPD20M): 17.5 kts
5-day plot -  Wind Speed, Wind Gust and Atmospheric Pressure Combined plot of Wind Speed, Gust, and Air Pressure
Supplemental Measurements
Highest 1-minute Wind Speed
Time (PST)5-day plot - 1-Minute Wind Speed WSPD 5-day plot - 1-Minute Wind Direction WDIR
10:23 am 15.5 kts-
Previous observations
TIME
(PST)
5-day plot - Wind Direction
WDIR
 
5-day plot - Wind Speed
WSPD
kts
5-day plot - Wind Gust
GST
kts
5-day plot - Wave Height
WVHT
ft
5-day plot - Dominant Wave Period
DPD
sec
5-day plot - Average Wave Period
APD
sec
5-day plot - Mean Wave Direction
MWD
 
5-day plot - Atmospheric Pressure
PRES
in
5-day plot - Pressure Tendency
PTDY
in
5-day plot - Air Temperature
ATMP
°F
5-day plot - Water Temperature
WTMP
°F
5-day plot - Dew Point
DEWP
°F
5-day plot - Salinity
SAL
psu
5-day plot - Visibility
VIS
nmi
5-day plot - Tide (above MLLW)
TIDE
ft
2024-03-03 10:20 am W 13.6 15.5 7.5 158.0WNW30.09- 59.7 60.6 51.4---
2024-03-03 10:10 am W 13.6 15.5----30.09- 59.7 60.6 51.3---
2024-03-03 10:00 am W 11.7 17.5----30.09+0.04 59.7 60.6 51.4---
2024-03-03 09:50 am W 13.6 17.5 7.2 147.9WNW30.09- 59.7 60.6 51.3---
2024-03-03 09:40 am W 13.6 15.5----30.09- 59.5 60.6 50.9---
2024-03-03 09:30 am W 13.6 17.5----30.09- 59.5 60.6 51.1---
2024-03-03 09:20 am W 13.6 19.4 7.5 128.1WNW30.08- 59.5 60.6 51.1---
2024-03-03 09:10 am W 13.6 17.5 7.5-8.1WNW30.08- 59.5 60.6 51.3---
2024-03-03 09:00 am W 13.6 17.5----30.08+0.04 59.5 60.6 51.1---
2024-03-03 08:50 am W 13.6 17.5 6.9 147.9WNW30.08- 59.4 60.6 50.5---
2024-03-03 08:40 am W 13.6 17.5 6.9-7.9WNW30.07- 59.4 60.6 50.4---
2024-03-03 08:30 am W 13.6 17.5----30.07- 59.4 60.6 50.4---
2024-03-03 08:20 amWNW 13.6 17.5 7.2 148.1WNW30.07- 59.4 60.6 50.7---
2024-03-03 08:10 amWNW 13.6 15.5 7.2-8.1WNW30.07- 59.4- 50.9---
2024-03-03 08:00 am W 11.7 15.5----30.06+0.04 59.4 60.6 50.5---
2024-03-03 07:50 amWNW 11.7 15.5 7.2 138.3WNW30.06- 59.2 60.6 50.2---
2024-03-03 07:40 am W 11.7 15.5 7.2-8.3WNW30.06- 59.2 60.6 50.4---
2024-03-03 07:30 am W 11.7 15.5----30.05- 59.0 60.6 50.4---
2024-03-03 07:20 am W 11.7 17.5 6.9 147.8WNW30.05- 59.0 60.6 50.9---
2024-03-03 07:10 amWNW 11.7 15.5 6.9-7.8WNW30.05- 58.8 60.6 50.2---
2024-03-03 07:00 amWNW 11.7 15.5----30.05+0.03 58.6 60.6 50.7---
2024-03-03 06:50 amWNW 11.7 13.6 6.9 147.9WNW30.05- 58.5 60.6 50.7---
2024-03-03 06:40 amWNW 11.7 15.5----30.04- 58.5 60.6 50.7---
2024-03-03 06:30 amWNW 9.7 13.6----30.04- 57.9 60.6 51.1---
2024-03-03 06:20 amWNW 7.8 11.7 6.9 158.0WNW30.04- 57.9 60.6 51.3---
2024-03-03 06:10 amWNW 7.8 9.7----30.04- 57.9 60.6 51.8---
2024-03-03 06:00 amWNW 7.8 9.7----30.04+0.01 57.6 60.6 51.6---
2024-03-03 05:50 amWNW 5.8 7.8 6.9 158.0WNW30.03- 57.4 60.6 51.3---
2024-03-03 05:40 am NW 7.8 9.7----30.03- 57.2 60.6 51.3---
2024-03-03 05:30 am NW 7.8 9.7----30.03- 57.0- 50.9---
2024-03-03 05:20 am NW 7.8 9.7 6.9 157.9WNW30.03- 56.7 60.6 50.9---
2024-03-03 05:10 am NW 7.8 9.7 6.9-7.9WNW30.03- 56.3 60.6 51.1---
2024-03-03 05:00 amWNW 5.8 9.7----30.03+0.00 55.6 60.6 50.9---
2024-03-03 04:50 am NW 5.8 9.7 7.5 157.7WNW30.03- 54.9 60.6 50.7---
2024-03-03 04:40 am NW 9.7 13.6----30.03- 54.5 60.6 51.3---
2024-03-03 04:30 am NW 15.5 21.4----30.03- 54.7 60.6 51.3---
2024-03-03 04:20 am NW 17.5 21.4 6.9 147.3WNW30.03- 56.3 60.6 51.6---
2024-03-03 04:10 amNNW 11.7 13.6 6.9-7.3WNW30.02- 56.8 60.6 51.1---
2024-03-03 04:00 amNNW 11.7 13.6----30.02-0.02 56.7 60.6 51.8---
2024-03-03 03:50 amNNW 13.6 17.5 6.6 157.3WNW30.02- 56.1 60.6 52.7---
2024-03-03 03:40 am NW 15.5 19.4----30.02- 55.9 60.6 52.7---
2024-03-03 03:30 am NW 19.4 25.3----30.03- 55.9 60.6 52.7---
2024-03-03 03:20 am NW 19.4 27.2 7.2 137.8WNW30.02- 58.1 60.6 52.3---
2024-03-03 03:10 amWNW 11.7 15.5 7.2-7.8WNW30.02- 59.0 60.6 50.9---
2024-03-03 03:00 amWNW 11.7 15.5----30.03-0.02 59.0 60.6 51.1---
2024-03-03 02:50 amWNW 11.7 13.6 6.6 137.6WNW30.03- 58.8 60.6 50.7---
2024-03-03 02:40 amWNW 11.7 15.5----30.03- 59.0 60.6 50.5---
2024-03-03 02:30 amWNW 13.6 15.5----30.03- 58.8 60.6 50.4---
2024-03-03 02:20 amWNW 13.6 17.5 6.9 157.5WNW30.03- 58.8 60.6 50.4---
2024-03-03 02:10 amWNW 13.6 17.5----30.03- 59.0 60.6 51.1---
2024-03-03 02:00 amWNW 13.6 17.5----30.03-0.01 59.0 60.8 50.7---
2024-03-03 01:50 amWNW 15.5 17.5 6.9 157.4WNW30.04- 59.0 60.8 50.4---
2024-03-03 01:40 am NW 13.6 19.4 6.9-7.4WNW30.04- 59.0 60.8 50.9---
2024-03-03 01:30 amWNW 15.5 19.4----30.04- 59.0 60.8 50.4---
2024-03-03 01:20 amWNW 15.5 19.4 6.2 127.0WNW30.04- 59.0 60.8 50.4---
2024-03-03 01:10 amWNW 15.5 19.4 6.2-7.0WNW30.05- 59.2 60.8 50.9---
2024-03-03 01:00 amWNW 15.5 19.4----30.04+0.00 59.2 60.8 50.7---
2024-03-03 12:50 amWNW 15.5 19.4 6.2 147.1WNW30.04- 59.2 60.8 50.9---
2024-03-03 12:40 amWNW 15.5 19.4----30.05- 59.2 60.8 50.7---
2024-03-03 12:30 amWNW 15.5 19.4----30.04- 59.4 60.8 51.4---
2024-03-03 12:20 amWNW 15.5 19.4 6.6 157.7WNW30.04- 59.4 60.8 51.1---
2024-03-03 12:10 am W 13.6 19.4----30.04- 59.4 60.8 52.0---
2024-03-03 12:00 am W 13.6 17.5----30.04+0.00 59.4 60.8 52.0---
2024-03-02 11:50 pm W 13.6 17.5 6.2 147.6WNW30.04- 59.4 60.8 52.0---
2024-03-02 11:40 pm W 13.6 15.5 6.2-7.6WNW30.04- 59.4 61.0 51.8---
2024-03-02 11:30 pm W 13.6 15.5----30.05- 59.4 61.0 51.8---
2024-03-02 11:20 pm W 13.6 17.5 6.6 158.2WNW30.04- 59.4 61.0 51.6---
2024-03-02 11:10 pm W 11.7 17.5----30.05- 59.4 61.0 52.5---
2024-03-02 11:00 pmWNW 11.7 15.5----30.05+0.01 59.4 61.0 52.7---
2024-03-02 10:50 pmWNW 9.7 13.6 5.9 157.8WNW30.05- 59.4 61.0 52.7---
2024-03-02 10:40 pmWNW 11.7 13.6----30.05- 59.4 61.0 52.2---
2024-03-02 10:30 pm W 9.7 11.7----30.05- 59.5 61.0 51.6---
2024-03-02 10:20 pm W 9.7 13.6 6.2 147.7WNW30.05- 59.5 61.0 52.0---
2024-03-02 10:10 pmWNW 9.7 13.6----30.05- 59.4 61.0 51.8---
2024-03-02 10:00 pmWNW 9.7 11.7----30.05+0.03 59.4 61.0 52.5---
2024-03-02 09:50 pmWNW 9.7 11.7 6.6 147.7WNW30.05- 59.4 61.0 52.7---
2024-03-02 09:40 pm W 9.7 11.7----30.05- 59.2 61.0 52.5---
2024-03-02 09:30 pm W 9.7 11.7----30.05- 59.2 61.0 52.3---
2024-03-02 09:20 pm W 11.7 13.6 6.2 167.5WNW30.05- 59.2 61.0 52.2---
2024-03-02 09:10 pm W 9.7 13.6----30.05- 59.0 61.0 52.2---
2024-03-02 09:00 pmWNW 9.7 13.6----30.05+0.02 59.0 61.0 52.3---
2024-03-02 08:50 pmWNW 9.7 13.6 5.9 167.1WNW30.04- 58.5 61.0 52.2---
2024-03-02 08:40 pmWNW 13.6 17.5----30.04- 58.1 61.0 52.9---
2024-03-02 08:30 pmWNW 15.5 19.4----30.04- 59.0 61.0 53.2---
2024-03-02 08:20 pmWNW 11.7 15.5 5.9 157.4WNW30.04- 59.7 61.0 52.0---
2024-03-02 08:10 pm W 11.7 15.5----30.03- 59.7 61.0 52.2---
2024-03-02 08:00 pm W 11.7 15.5----30.03+0.02 59.9 61.0 52.3---
2024-03-02 07:50 pm W 11.7 15.5 5.9 157.1WNW30.03- 59.9 61.0 52.2---
2024-03-02 07:40 pm W 11.7 15.5----30.03- 59.9 61.0 52.3---
2024-03-02 07:30 pm W 13.6 15.5----30.03- 59.9 61.0 52.3---
2024-03-02 07:20 pm W 11.7 15.5 5.6 167.0WNW30.03- 59.7 61.0 52.2---
2024-03-02 07:10 pm W 11.7 15.5----30.02- 59.7 61.2 52.3---
2024-03-02 07:00 pm W 11.7 15.5----30.02+0.01 59.7 61.2 52.7---
2024-03-02 06:50 pm W 11.7 15.5 5.9 167.3WNW30.02- 59.7 61.2 53.4---
2024-03-02 06:40 pm W 11.7 13.6----30.03- 59.7 61.2 54.3---
2024-03-02 06:30 pm W 11.7 15.5----30.03- 59.7 61.2 54.5---
2024-03-02 06:20 pm W 11.7 15.5 5.6 157.4WNW30.03- 59.7 61.2 54.9---
2024-03-02 06:10 pm W 11.7 13.6 5.6-7.4WNW30.03- 59.5 61.2 54.7---
2024-03-02 06:00 pmWSW 7.8 9.7----30.03+0.02 59.2 61.2 54.3---
2024-03-02 05:50 pmWSW 9.7 11.7 5.9 157.0WNW30.02- 59.0 61.2 54.1---
2024-03-02 05:40 pm W 9.7 11.7----30.02- 59.0 61.2 54.1---
2024-03-02 05:30 pm W 9.7 11.7----30.02- 58.6 61.2 54.0---
2024-03-02 05:20 pm W 9.7 11.7 5.2 146.4 W30.02- 58.6 61.2 54.3---
2024-03-02 05:10 pm W 9.7 13.6----30.02- 58.8 61.2 54.3---
2024-03-02 05:00 pm W 11.7 13.6----30.02+0.00 58.8 61.2 53.8---
2024-03-02 04:50 pm W 13.6 17.5 5.6 146.5WNW30.02- 58.6 61.2 53.2---
2024-03-02 04:40 pmWNW 13.6 17.5----30.01- 58.6 61.2 53.4---
2024-03-02 04:30 pmWNW 13.6 17.5----30.01- 57.9 61.2 54.0---
2024-03-02 04:20 pmWNW 15.5 21.4 5.9 157.2WNW30.01- 58.3 61.2 54.3---
2024-03-02 04:10 pm W 15.5 23.3 5.9-7.2WNW30.01- 60.3 61.3 54.7---
2024-03-02 04:00 pm W 15.5 19.4----30.01-0.02 60.3 61.3 54.5---
2024-03-02 03:50 pmWSW 13.6 15.5 5.2 166.8WNW30.01- 60.1 61.3 54.5---
2024-03-02 03:40 pmWSW 13.6 15.5----30.01- 59.9 61.3 54.5---
2024-03-02 03:30 pmWSW 13.6 15.5----30.01- 59.5 61.3 54.3---
2024-03-02 03:20 pmWSW 11.7 15.5 5.2 156.8WNW30.01- 59.4 61.3 54.7---
2024-03-02 03:10 pm SW 11.7 15.5----30.01- 59.5 61.3 55.6---
2024-03-02 03:00 pmWSW 13.6 17.5----30.01-0.04 59.9 61.3 55.0---
2024-03-02 02:50 pmWSW 11.7 15.5 5.2 156.9WNW30.01- 59.9 61.3 54.3---
2024-03-02 02:40 pm W 11.7 13.6 5.2-6.9WNW30.01- 59.2 61.3 54.1---
2024-03-02 02:30 pm W 13.6 19.4----30.01- 59.5 61.3 55.0---
2024-03-02 02:20 pmWSW 11.7 15.5 5.2 157.0 W30.01- 60.8 61.3 55.0---
2024-03-02 02:10 pmWSW 11.7 15.5----30.02- 60.8 61.3 55.0---
2024-03-02 02:00 pmWSW 11.7 15.5----30.02-0.05 61.0 61.3 55.4---
2024-03-02 01:50 pmWSW 11.7 15.5 5.2 156.8 W30.02- 60.8 61.3 55.2---
2024-03-02 01:40 pmWSW 11.7 15.5----30.02- 60.6 61.2 55.0---
2024-03-02 01:30 pmWSW 11.7 15.5----30.03- 60.6 61.2 55.0---
2024-03-02 01:20 pmWSW 11.7 13.6 5.6 156.9WNW30.03- 60.8 61.2 55.0---
2024-03-02 01:10 pmWSW 11.7 15.5----30.03- 60.8 61.2 55.0---
2024-03-02 01:00 pmWSW 11.7 15.5----30.03-0.03 60.8 61.2 54.9---
2024-03-02 12:50 pmWSW 13.6 15.5 5.2 167.0 W30.04- 60.8 61.2 54.9---
2024-03-02 12:40 pmWSW 11.7 15.5----30.04- 60.4 61.2 54.9---
2024-03-02 12:30 pm SW 11.7 13.6----30.05- 60.3 61.2 55.8---
2024-03-02 12:20 pm SW 11.7 13.6 4.9 156.9WNW30.05- 60.3 61.2 55.8---
2024-03-02 12:10 pm SW 9.7 13.6 4.9-6.9WNW30.05- 60.1 61.2 55.6---
2024-03-02 12:00 pm SW 9.7 13.6----30.05+0.00 60.1- 55.8---
2024-03-02 11:50 am SW 9.7 11.7 4.9 167.0 W30.06- 60.1 61.2 55.6---
2024-03-02 11:40 amSSW 7.8 11.7----30.06- 59.9 61.0 54.9---
2024-03-02 11:30 am SW 7.8 9.7----30.06- 59.7 61.0 54.3---
2024-03-02 11:20 am SW 7.8 9.7 5.2 157.1 W30.07- 59.4 61.0 53.8---
2024-03-02 11:10 am SW 7.8 9.7 5.2-7.1 W30.07- 59.0 61.0 53.8---
2024-03-02 11:00 am SW 7.8 9.7----30.07+0.02 58.6 61.0 54.1---
2024-03-02 10:50 am SW 7.8 11.7 4.9-6.8 W30.07- 58.1 61.0 54.0---

Detailed Wave Summary
for 46086 as of (10:10 am PST)
1810 GMT on 03/03/2024:

These wave data are displayed in rounded times.

     

Click on the graph icon in the table below to see a time series plot of the last five days of that observation.

5-day plot - Significant Wave Height Significant Wave Height (WVHT): 7.5 ft
5-day plot - Swell Height Swell Height (SwH): 6.9 ft
5-day plot - Swell Period Swell Period (SwP): 14.8 sec
5-day plot - Swell Direction Swell Direction (SwD):WNW
5-day plot - Wind Wave Height Wind Wave Height (WWH): 2.6 ft
5-day plot - Wind Wave Period Wind Wave Period (WWP): 5.9 sec
5-day plot - Wind Wave Direction Wind Wave Direction (WWD): W
5-day plot - Wave Steepness Wave Steepness (STEEPNESS): SWELL
5-day plot - Average Wave Period Average Wave Period (APD): 8.0 sec
Previous observations
TIME
(PST)
5-day plot - Wave Height
WVHT
ft
5-day plot - Swell Height
SwH
ft
5-day plot - Swell Period
SwP
sec
5-day plot - Swell Direction
SwD
 
5-day plot - Wind Wave Height
WWH
ft
5-day plot - Wind Wave Period
WWP
sec
5-day plot - Wind Wave Direction
WWD
 
5-day plot - Wave Steepness
STEEPNESS
 
5-day plot - Average Wave Period
APD
sec
2024-03-03 09:40 am 7.2 6.9 13.8WNW 2.6 5.0 W SWELL 7.9
2024-03-03 09:10 am 7.5 7.2 12.1WNW 2.6 5.0 W SWELL 8.1
2024-03-03 08:40 am 6.9 6.6 13.8WNW 2.6 5.0 W SWELL 7.9
2024-03-03 08:10 am 7.2 6.9 13.8WNW 2.6 5.6 W SWELL 8.1
2024-03-03 07:40 am 7.2 6.9 12.9WNW 2.3 5.6 W SWELL 8.3
2024-03-03 07:10 am 6.9 6.2 13.8WNW 2.6 5.6 W SWELL 7.8
2024-03-03 06:40 am 6.9 6.6 13.8WNW 2.3 5.0 W SWELL 7.9
2024-03-03 06:10 am 6.9 6.6 14.8WNW 1.6 3.8 W SWELL 8.0
2024-03-03 05:40 am 6.9 6.6 14.8WNW 1.6 4.0 W SWELL 8.0
2024-03-03 05:10 am 6.9 6.6 14.8WNW 1.6 4.0 W SWELL 7.9
2024-03-03 04:40 am 7.5 7.2 14.8WNW 2.0 3.4 W SWELL 7.7
2024-03-03 04:10 am 6.9 6.2 13.8WNW 2.6 5.0 W SWELL 7.3
2024-03-03 03:40 am 6.6 5.9 14.8WNW 3.0 6.2 W SWELL 7.3
2024-03-03 03:10 am 7.2 6.6 12.9WNW 2.6 5.6 W SWELL 7.8
2024-03-03 02:40 am 6.6 6.2 12.9WNW 2.6 5.3 W SWELL 7.6
2024-03-03 02:10 am 6.9 6.2 14.8WNW 2.6 5.3 W SWELL 7.5
2024-03-03 01:40 am 6.9 6.2 14.8WNW 3.0 5.3 W SWELL 7.4
2024-03-03 01:10 am 6.2 5.6 12.1WNW 3.3 5.9 W SWELL 7.0
2024-03-03 12:40 am 6.2 5.6 13.8WNW 3.0 6.2 W SWELL 7.1
2024-03-03 12:10 am 6.6 5.9 14.8WNW 2.6 5.3 W SWELL 7.7
2024-03-02 11:40 pm 6.2 5.6 13.8WNW 2.3 5.9 W SWELL 7.6
2024-03-02 11:10 pm 6.6 6.2 14.8WNW 2.0 5.3 W SWELL 8.2
2024-03-02 10:40 pm 5.9 5.6 14.8WNW 2.0 4.8 W SWELL 7.8
2024-03-02 10:10 pm 6.2 5.9 13.8WNW 2.0 4.3 WSW SWELL 7.7
2024-03-02 09:40 pm 6.6 6.2 13.8WNW 1.6 4.2 W SWELL 7.7
2024-03-02 09:10 pm 6.2 5.9 16.0WNW 2.0 4.3 WSW SWELL 7.5
2024-03-02 08:40 pm 5.9 5.2 16.0WNW 3.0 6.2 W SWELL 7.1
2024-03-02 08:10 pm 5.9 5.6 14.8WNW 2.3 5.3 W SWELL 7.4
2024-03-02 07:40 pm 5.9 5.2 14.8WNW 2.3 5.0 W SWELL 7.1
2024-03-02 07:10 pm 5.6 4.9 16.0WNW 2.3 5.3 W SWELL 7.0
2024-03-02 06:40 pm 5.9 5.6 16.0WNW 2.3 4.8 W SWELL 7.3
2024-03-02 06:10 pm 5.6 5.2 14.8WNW 2.0 4.5 WSW SWELL 7.4
2024-03-02 05:40 pm 5.9 5.6 14.8WNW 1.6 3.7 WSW SWELL 7.0
2024-03-02 05:10 pm 5.2 4.9 13.8 W 2.3 4.0 W SWELL 6.4
2024-03-02 04:40 pm 5.6 4.6 13.8WNW 3.0 5.6 W SWELL 6.5
2024-03-02 04:10 pm 5.9 4.9 14.8WNW 3.0 6.7 W SWELL 7.2
2024-03-02 03:40 pm 5.2 4.6 16.0WNW 2.6 5.6 W SWELL 6.8
2024-03-02 03:10 pm 5.2 4.9 14.8WNW 2.3 4.8 W SWELL 6.8
2024-03-02 02:40 pm 5.2 4.9 14.8WNW 2.3 5.0 W SWELL 6.9
2024-03-02 02:10 pm 5.2 4.6 14.8 W 2.3 4.3 W SWELL 7.0
2024-03-02 01:40 pm 5.2 4.6 14.8 W 2.3 4.5 W SWELL 6.8
2024-03-02 01:10 pm 5.6 4.9 14.8WNW 2.6 5.3 W SWELL 6.9
2024-03-02 12:40 pm 5.2 4.6 16.0 W 2.3 5.6 W SWELL 7.0
2024-03-02 12:10 pm 4.9 4.6 14.8WNW 2.0 4.5 W SWELL 6.9
2024-03-02 11:40 am 4.9 4.6 16.0 W 1.3 3.7 WSW SWELL 7.0
2024-03-02 11:10 am 5.2 4.9 14.8 W 1.3 4.0 WSW SWELL 7.1

Plot of wave energy versus frequency (and period)